星链-37586(STARLINK-37586)

导读

STARLINK-37586是SpaceX星链星座的Gen2A系列通信卫星,北美防空司令部分配编号NORAD 69521,于2026年2月7日由猎鹰9号火箭从美国加利福尼亚州范登堡太空部队基地发射升空,属于星链17-42批次,同批共22颗卫星入轨。 该卫星运行在550公里高度、97度倾角的极地轨道,配备4组激光星间链路模块,单星通信带宽达100Gbps,主要负责补充北半球高纬度地区的网络覆盖,可支撑普通手机直连卫星的短信、低速率数据通信服务。截至2026年6月,卫星在轨运行稳定,已完成轨道相位调试,正式接入星链服务网络。

基本信息
目录编号:
69521
目录名称:
STARLINK-37586
国际标识:
2026-133P
轨道中心:
EARTH
卫星名称:
星链-37586
卫星全名:
星链-37586(STARLINK-37586)
卫星状态:
在轨 (已飞行85 天)
发射日期:
2026-06-12 UTC
国别 :
美国 (US)
星等 :
--
轨道信息
数据来源 国际轨道数据
星历时间: 2026-09-05T04:31:30+0800
10小时前
查看轨道信息
半长轴: 6840.836km
偏心率: 0.0000868
轨道倾角: 53.158°
近地点辐角 69.599°
升交点赤经 302.735°
平近点角 290.510°
近地点: 462.105km
远地点: 463.293km
周期: 93.848分钟
每日圈数: 15.344016
详细信息
固有亮度:
5
最大亮度:
2.5
卫星平台:
Starlink V1.0
覆盖范围:
全球
运营商:
太空探索技术公司
运营商所在国:
美国
制造商(研发单位):
太空探索技术公司
制造商所在国:
美国
使用方式:
暂无
卫星简介
Starlink 计划是 SpaceX 推出的全球卫星互联网项目,通过发射低轨道卫星,为全球尤其是偏远地区提供高速、低延迟的互联网服务。自 2019 年起,Starlink 已部署数千颗卫星,旨在缩小全球数字鸿沟,推动互联网普及。该项目还为军事、航空等行业提供通信支持,带来广泛经济效益。
2D轨道图
3D轨道图
轨道高度分析图
轨道倾角分析图
轨道综合分析图
查看轨道综合分析图
交会数据列表
事件ID 空间交会对象 最接近时刻(TCA) 交会距离 交会风险概率(CRP) 交会风险指数(CRI) 操作
CDM_260905-152706-265606-952121
2026-09-05T
15:27:53+0000
1.883 km
极远距离
2.07207E-6 低风险 0.41
CDM_260906-190605-300706-952122
2026-09-06T
19:06:22+0000
2.642 km
极远距离
9.180447E-7 极低风险 0.34